This is the latest recevied weather packets stored in our database for station/object IK3ZGB. If no packets are shown the sender has not sent any weather packets the latest 10 day(s).
| Time | Temp. | Humidity | Pressure | Rain* | Wind** | Luminosity | Snow |
|---|---|---|---|---|---|---|---|
| 1777465391 | 20.56° C | 64% | 1018.2 hPa | - | - | - | - |
| 1777464790 | 21.11° C | 62% | 1018 hPa | - | - | - | - |
| 1777464189 | 21.11° C | 61% | 1018.3 hPa | - | - | - | - |
| 1777463591 | 21.11° C | 60% | 1018 hPa | - | - | - | - |
| 1777462991 | 21.11° C | 61% | 1018 hPa | - | - | - | - |
| 1777462391 | 21.11° C | 61% | 1018.1 hPa | - | - | - | - |
| 1777461791 | 21.67° C | 60% | 1018.4 hPa | - | - | - | - |
| 1777461191 | 21.67° C | 62% | 1018.4 hPa | - | - | - | - |
| 1777460592 | 21.11° C | 60% | 1018.3 hPa | - | - | - | - |
| 1777459990 | 21.11° C | 62% | 1018.6 hPa | - | - | - | - |
| 1777459392 | 21.11° C | 61% | 1018.6 hPa | - | - | - | - |
| 1777458791 | 21.11° C | 62% | 1018.6 hPa | - | - | - | - |
| 1777458192 | 21.11° C | 62% | 1018.5 hPa | - | - | - | - |
| 1777457590 | 21.11° C | 62% | 1018.8 hPa | - | - | - | - |
| 1777456991 | 20.56° C | 61% | 1018.5 hPa | - | - | - | - |
| 1777456391 | 20.56° C | 61% | 1018.6 hPa | - | - | - | - |
| 1777455791 | 20.56° C | 60% | 1018.7 hPa | - | - | - | - |
| 1777455190 | 20.56° C | 61% | 1018.9 hPa | - | - | - | - |
| 1777454590 | 20.56° C | 61% | 1018.7 hPa | - | - | - | - |
| 1777453991 | 20.56° C | 61% | 1018.8 hPa | - | - | - | - |
| 1777453390 | 20.56° C | 62% | 1018.7 hPa | - | - | - | - |
| 1777452790 | 20.56° C | 62% | 1018.6 hPa | - | - | - | - |
| 1777452191 | 20.56° C | 62% | 1018.6 hPa | - | - | - | - |
| 1777451591 | 20° C | 62% | 1018.5 hPa | - | - | - | - |
| 1777450990 | 20° C | 62% | 1018.5 hPa | - | - | - | - |
* Rain since midnight (hover to see other rain measurements)
** Current wind speed in m/s (hover to see current wind gust speed)